Погода в Сан-Хуан-Баутисте

Парагвай     26°40′13″S   57°08′05″W
темп.,
°C
ветер,
м/с
пор.,
м/с
влажн.,
%
обл.,
%
осадки,
мм/ч
давл.,
гПа
погр.,
м
1 марта, пн
пн100:00+25вюв311640 0.0 1009449
03:00+22вюв24800 0.0 1008124
06:00+21юв23870 0.0 100997
09:00+26в23640 0.0 1010376
12:00+37св11360 0.0 10091505
15:00+38ююв21281 0.0 10062620
18:00+34юв333430 0.0 10042017
21:00+27в256215 0.0 1006117
2 марта, вт
вт200:00+25всв26680 0.0 1008155
03:00+24св24740 0.0 1008112
06:00+23св22810 0.0 100951
09:00+28ссв25650 0.0 1011421
12:00+35ссв22400 0.0 10101726
15:00+36в213623 0.0 10072230
18:00+33вюв344477 0.0 10061246
21:00+28в266144 0.0 1008132
3 марта, ср
ср300:00+26в396623 0.0 1010252
03:00+25св397421 0.0 1010262
06:00+23св25820 0.0 1010151
09:00+27ссв24740 0.3 1012314
12:00+35ссв234172 0.0 10111716
15:00+36с114169 0.1 10081439
18:00+31юв465697 0.4 1006312
21:00+28вюв396467 0.5 1008268
4 марта, чт
чт400:00+24в258537 0.6 1010158
03:00+23св399169 0.7 1009348
06:00+22ссв1294100 0.0 100939
09:00+26с3678100 0.0 1010460
12:00+33сз354898 1.5 10101518
15:00+30ююв347099 12.1 1007524
18:00+23ссв5897100 31.6 1006375
21:00+20ю3697100 66.7 1008208
5 марта, пт
пт500:00+21ссв1398100 0.4 1008159
03:00+21св2697100 0.8 1006235
06:00+21юз1298100 0.8 1006109
09:00+23ю249384 1.6 1007351
12:00+26ююз258566 7.3 1007605
15:00+26ююв478566 13.9 1005790
18:00+26ююв477648 0.8 1004968
21:00+22юв288865 0.8 1006303